Location: downtown San Diego
(32.7310°N, 117.1990°W)
Time: 16:26:38
(UTC-07:00)

SeaSat 1 - Pass Details

Date: 12 July 2018
Orbit: 744 x 748 km, 108.0° (Epoch: 21 July)

Event Time Altitude Azimuth Distance (km) Brightness Sun altitude
Rises 20:42:27 0° 21° (NNE) 3,195 5.9 -8.8°
Reaches altitude 10° 20:44:44 10° 19° (NNE) 2,268 5.1 -9.2°
Maximum altitude 20:49:38 72° 296° (WNW) 786 2.8 -10.1°
Drops below altitude 10° 20:54:31 10° 213° (SSW) 2,254 4.9 -10.9°
Sets 20:56:47 0° 211° (SSW) 3,174 5.7 -11.3°
